Location: NJAA Observatory
(40.6819°N, 74.8979°W)
Time: 05:03:55
(UTC-04:00)

Courier 1B - All Passes

Search period start: 30 August 2016 00:00
Search period end: 09 September 2016 00:00
Orbit: 962 x 1209 km, 28.3° (Epoch: 29 August)

Date Brightness Start Highest point End Pass type
(mag) Time Alt. Az. Time Alt. Az. Time Alt. Az.
30 Aug - 01:36:19 10° SSW 01:40:58 20° SSE 01:45:31 10° ESE night (unlit)
30 Aug - 03:28:43 10° SW 03:34:07 27° S 03:39:26 10° ESE visible
30 Aug - 05:22:24 10° WSW 05:27:16 22° SSW 05:32:08 10° SE visible
30 Aug - 07:18:55 10° SW 07:20:14 11° SSW 07:21:33 10° SSW daylight
31 Aug - 00:43:17 10° SSW 00:47:28 17° SSE 00:51:32 10° ESE night (unlit)
31 Aug - 02:35:11 10° SW 02:40:36 26° S 02:45:53 10° ESE visible
31 Aug - 04:28:37 10° WSW 04:33:46 25° S 04:38:53 10° SE visible
31 Aug - 06:23:41 10° SW 06:26:47 14° SSW 06:29:54 10° S daylight
31 Aug - 23:50:33 10° S 23:53:57 14° SSE 23:57:17 10° SE night (unlit)
01 Sep - 01:41:42 10° SW 01:47:05 25° S 01:52:16 10° ESE night (unlit)
01 Sep - 03:34:53 10° WSW 03:40:17 27° S 03:45:33 10° SE visible
01 Sep - 05:29:20 10° WSW 05:33:20 17° SSW 05:37:20 10° SSE visible
01 Sep - 22:58:33 10° S 23:00:26 11° SSE 23:02:17 10° SE night (unlit)
02 Sep - 00:48:17 10° SW 00:53:32 23° SSE 00:58:35 10° ESE night (unlit)
02 Sep - 02:41:11 10° WSW 02:46:44 28° S 02:52:09 10° SE visible
02 Sep - 04:35:15 10° WSW 04:39:52 20° SSW 04:44:26 10° SSE visible
02 Sep - 23:55:00 10° SSW 23:59:59 20° SSE 00:04:47 10° ESE night (unlit)
03 Sep - 01:47:30 10° SW 01:53:12 28° S 01:58:41 10° ESE night (unlit)
03 Sep - 03:41:18 10° WSW 03:46:23 23° SSW 03:51:22 10° SE visible
03 Sep - 05:37:35 10° SW 05:39:20 11° SSW 05:41:03 10° S visible
03 Sep - 23:01:53 10° SSW 23:06:25 18° SSE 23:10:49 10° ESE night (unlit)
04 Sep - 00:53:52 10° SW 00:59:38 27° S 01:05:09 10° ESE night (unlit)
04 Sep - 02:47:25 10° WSW 02:52:53 26° S 02:58:10 10° SE visible
04 Sep - 04:42:29 10° SW 04:45:53 15° SSW 04:49:16 10° S visible
04 Sep - 22:09:05 10° S 22:12:51 15° SSE 22:16:32 10° SE visible
05 Sep - 00:00:18 10° SW 00:06:04 26° S 00:11:33 10° ESE night (unlit)
05 Sep - 01:53:35 10° WSW 01:59:20 28° S 02:04:52 10° SE night (unlit)
05 Sep - 03:48:06 10° WSW 03:52:26 18° SSW 03:56:41 10° SSE visible
05 Sep - 21:16:56 10° S 21:19:17 12° SSE 21:21:35 10° SE visible
05 Sep - 23:06:49 10° SW 23:12:28 24° SSE 23:17:51 10° ESE visible
06 Sep - 00:59:47 10° WSW 01:05:47 29° S 01:11:28 10° ESE night (unlit)
06 Sep - 02:53:56 10° WSW 02:58:57 22° SSW 03:03:48 10° SSE night (unlit)
06 Sep - 22:13:29 10° SSW 22:18:50 21° SSE 22:24:01 10° ESE visible
07 Sep - 00:06:02 10° SW 00:12:10 29° S 00:18:00 10° ESE night (unlit)
07 Sep - 01:59:54 10° WSW 02:05:26 25° SSW 02:10:44 10° SE night (unlit)
07 Sep - 03:55:51 10° SW 03:58:24 12° SSW 04:00:56 10° S visible
07 Sep - 21:20:21 10° SSW 21:25:14 18° SSE 21:29:58 10° ESE visible
07 Sep - 23:12:21 10° SW 23:18:32 29° S 23:24:26 10° ESE visible
08 Sep - 01:05:57 10° WSW 01:11:53 28° S 01:17:31 10° SE night (unlit)
08 Sep - 03:00:58 10° WSW 03:04:57 16° SSW 03:08:49 10° SSE night (unlit)
08 Sep - 20:27:33 10° S 20:31:37 15° SSE 20:35:35 10° SE visible
08 Sep - 22:18:44 10° SW 22:24:53 27° S 22:30:46 10° ESE visible
